[[{"header":{"parameterUnit":"m.s-1","parameterCategory":1,"la1":30.2991,"la2":30.254,"lo1":-89.0895,"lo2":-89.0444,"dy":0.0017,"dx":0.0017,"nx":28,"ny":28,"refTime":"2026-01-06T03:00:00:Z","depth":0,"parameterNumber":2,"parameterNumberName":"U-component_of_WINDS"},"data":[0,0,0,0,0,0,0,0,0,0,0,0,0,0,0,0,0,0,0,0,0,0,0,0,0,0,0,0,0,0,0,0,0,0,0,0,0,0,0,0,0,0,0,0,0,0,0,0,0,0,0,0,0,0,0,0,0,0,-1.1191,-1.119,0,-1.1025,-1.1023,-1.1021,-1.093,-1.0929,-1.0929,-1.0929,-1.0753,-1.0748,-1.0744,0,0,0,0,0,0,0,0,0,0,0,0,0,-1.1426,-1.1422,-1.1192,-1.119,-1.1187,-1.1025,-1.1023,-1.1021,-1.093,-1.0929,-1.0929,-1.0929,-1.0754,-1.0749,-1.0744,0,0,0,0,0,0,0,0,0,0,0,0,0,-1.1298,-1.1421,-1.1192,-1.1123,-1.1115,-1.1026,-1.1023,-1.102,-1.093,-1.0929,-1.0929,-1.0929,-1.0756,-1.0749,-1.0743,-1.0708,0,0,-1.0722,-1.0719,0,0,0,0,0,0,0,0,-1.1305,-1.1289,-1.1135,-1.1127,-1.1118,-1.0998,-1.1041,-1.0915,-1.093,-1.1,-1.0929,-1.0929,-1.0834,-1.0821,-1.079,-1.07,-1.0692,-1.0722,-1.0718,-1.0715,-1.0713,0,0,0,0,0,0,0,-1.1314,-1.1296,-1.1125,-1.1133,-1.1123,-1.1098,-1.108,-1.1016,-1.0921,-1.0994,-1.0987,-1.0969,-1.083,-1.0797,-1.0786,-1.069,-1.0722,-1.0716,-1.0712,-1.0709,-1.056,-1.056,0,0,0,0,0,0,-1.1335,-1.1304,-1.1131,-1.112,-1.1213,-1.1094,-1.1073,-1.1037,-1.0921,-1.0903,-1.0969,-1.0965,-1.0809,-1.0793,-1.0779,-1.0729,-1.0715,-1.0708,-1.0705,-1.056,-1.056,-1.056,0,0,0,0,0,0,-1.134,-1.132,-1.1137,-1.121,-1.1185,-1.1091,-1.105,-1.1034,-1.1001,-1.0903,-1.0885,-1.0954,-1.0808,-1.0788,-1.0726,-1.0722,-1.0705,-1.0699,-1.056,-1.056,-1.056,-1.0631,0,0,0,0,0,0,-1.1348,-1.1323,-1.131,-1.1211,-1.1182,-1.109,-1.105,-1.1031,-1.099,-1.0983,-1.0883,-1.0867,-1.0806,-1.0737,-1.072,-1.0712,-1.0694,-1.056,-1.056,-1.056,-1.0628,-1.0633,-1.0637,0,0,0,0,0,-1.1356,-1.1336,-1.131,-1.129,-1.1164,-1.109,-1.1073,-1.1005,-1.0991,-1.0976,-1.0912,-1.087,-1.0726,-1.0731,-1.0711,-1.0702,-1.056,-1.056,-1.056,-1.0626,-1.0632,-1.0637,0,0,0,0,0,0,-1.1435,-1.1321,-1.1292,-1.1239,-1.1175,-1.1074,-1.1054,-1.1014,-1.0951,-1.0947,-1.0864,-1.0842,-1.0788,-1.0738,-1.0747,-1.0661,-1.0638,-1.0634,-1.0695,-1.07,-1.0705,-1.0717,-1.0688,0,0,0,0,0,-1.1447,-1.1398,-1.13,-1.1263,-1.1233,-1.1149,-1.1114,-1.1068,-1.0997,-1.0969,-1.0901,-1.0833,-1.0772,-1.0733,-1.0672,-1.0621,-1.0597,-1.0605,-1.0609,-1.0614,-1.0611,-1.0578,-1.058,-1.0561,-1.0561,-1.0561,0,0,-1.147,-1.1401,-1.1375,-1.1277,-1.1222,-1.1171,-1.1127,-1.1075,-1.1036,-1.0961,-1.0898,-1.0846,-1.0764,-1.0707,-1.0679,-1.0664,-1.0611,-1.0614,-1.0618,-1.0612,-1.0579,-1.058,-1.0582,-1.0561,-1.0561,-1.0561,0,0,-1.1485,-1.1429,-1.1392,-1.1338,-1.1255,-1.12,-1.1191,-1.1097,-1.106,-1.0996,-1.0938,-1.0889,-1.0787,-1.073,-1.0688,-1.0683,-1.064,-1.0665,-1.0688,-1.0657,-1.0659,-1.066,-1.0656,-1.0656,-1.0662,-1.0663,-1.0663,0,-1.1523,-1.1446,-1.1377,-1.1328,-1.1286,-1.1218,-1.1177,-1.1128,-1.1029,-1.1001,-1.0987,-1.0856,-1.0796,-1.0724,-1.0723,-1.0692,-1.0677,-1.0675,-1.0665,-1.0665,-1.0664,-1.066,-1.0659,-1.0666,-1.0666,-1.0665,-1.0665,0,-1.1496,-1.1443,-1.1422,-1.133,-1.1286,-1.1242,-1.1164,-1.1127,-1.1085,-1.103,-1.0965,-1.0891,-1.0813,-1.0793,-1.0751,-1.0715,-1.0708,-1.0681,-1.0656,-1.0671,-1.0665,-1.0663,-1.0671,-1.067,-1.0669,-1.0668,0,0,-1.1555,-1.1426,-1.142,-1.1377,-1.1281,-1.1238,-1.119,-1.1115,-1.1084,-1.1019,-1.0975,-1.089,-1.0864,-1.0816,-1.0766,-1.074,-1.0738,-1.0715,-1.0712,-1.072,-1.0692,-1.0712,-1.0711,-1.071,-1.071,-1.0709,-1.0698,0,-1.1555,-1.1468,-1.1405,-1.1341,-1.129,-1.1225,-1.1183,-1.1118,-1.1066,-1.1014,-1.0955,-1.0896,-1.0867,-1.0837,-1.0809,-1.0745,-1.0731,-1.0745,-1.0666,-1.0664,-1.0688,-1.0709,-1.073,-1.0723,-1.0696,-1.0695,-1.0695,0,-1.1544,-1.1482,-1.1414,-1.1323,-1.1299,-1.1263,-1.1189,-1.1141,-1.1066,-1.1029,-1.0977,-1.0926,-1.087,-1.0852,-1.0773,-1.0784,-1.0748,-1.0712,-1.071,-1.0699,-1.068,-1.0696,-1.0719,-1.0718,-1.0691,-1.0691,-1.0691,0,-1.1592,-1.1492,-1.1437,-1.1403,-1.1296,-1.1272,-1.1226,-1.1151,-1.111,-1.1044,-1.1016,-1.0945,-1.0906,-1.0851,-1.0781,-1.0775,-1.0709,-1.0685,-1.0675,-1.0677,-1.0663,-1.0664,-1.0679,-1.0643,-1.0643,-1.0643,-1.0643,0,-1.1598,-1.1559,-1.1458,-1.1424,-1.1377,-1.1304,-1.1259,-1.1207,-1.1141,-1.1095,-1.1033,-1.0991,-1.0903,-1.0849,-1.0794,-1.0736,-1.0719,-1.0687,-1.0672,-1.0691,-1.0695,-1.0665,-1.0663,-1.0643,-1.0643,-1.0643,-1.0643,0,-1.1643,-1.1575,-1.1511,-1.1415,-1.139,-1.136,-1.1277,-1.1241,-1.1186,-1.1128,-1.111,-1.1023,-1.0956,-1.0882,-1.0791,-1.0754,-1.0699,-1.0679,-1.0725,-1.0716,-1.071,-1.0711,-1.0705,-1.0699,-1.0669,-1.067,-1.067,0,-1.1651,-1.1619,-1.1521,-1.1486,-1.1442,-1.1387,-1.1346,-1.1272,-1.123,-1.1142,-1.1117,-1.1046,-1.0985,-1.0882,-1.0809,-1.0738,-1.0715,-1.0718,-1.0704,-1.0723,-1.0713,-1.0715,-1.071,-1.0721,-1.0722,-1.0723,-1.0723,0,-1.1671,-1.1639,-1.1582,-1.1513,-1.1465,-1.1406,-1.1345,-1.132,-1.1234,-1.119,-1.1122,-1.1075,-1.0982,-1.0912,-1.0832,-1.0782,-1.0737,-1.0728,-1.0722,-1.074,-1.0767,-1.0751,-1.0734,-1.0728,-1.0728,-1.0727,-1.0727,-1.0727,-1.1696,-1.1665,-1.159,-1.1528,-1.1475,-1.1419,-1.1381,-1.1321,-1.1264,-1.1184,-1.1143,-1.1076,-1.1,-1.0889,-1.084,-1.0785,-1.077,-1.0762,-1.0759,-1.0757,-1.0762,-1.0778,-1.077,-1.077,-1.0769,-1.0769,-1.0769,0,-1.1712,-1.1661,-1.1605,-1.1522,-1.1473,-1.1438,-1.1368,-1.1329,-1.1271,-1.1205,-1.1147,-1.1068,-1.1,-1.0922,-1.0848,-1.0819,-1.0796,-1.0801,-1.0802,-1.0791,-1.078,-1.0792,-1.0821,-1.0821,-1.0821,-1.0821,-1.0821,-1.0821,-1.1714,-1.1658,-1.1617,-1.1533,-1.1482,-1.1417,-1.138,-1.1327,-1.1274,-1.119,-1.1133,-1.1084,-1.1012,-1.0933,-1.0868,-1.0847,-1.0821,-1.0833,-1.0805,-1.0796,-1.0792,-1.0788,-1.0798,-1.0828,-1.0828,-1.082,-1.082,-1.082]},{"header":{"parameterUnit":"m.s-1","parameterCategory":1,"la1":30.2991,"la2":30.254,"lo1":-89.0895,"lo2":-89.0444,"dy":0.0017,"dx":0.0017,"nx":28,"ny":28,"refTime":"2026-01-06T03:00:00:Z","depth":0,"parameterNumber":3,"parameterNumberName":"V-component_of_WINDS"},"data":[0,0,0,0,0,0,0,0,0,0,0,0,0,0,0,0,0,0,0,0,0,0,0,0,0,0,0,0,0,0,0,0,0,0,0,0,0,0,0,0,0,0,0,0,0,0,0,0,0,0,0,0,0,0,0,0,0,0,2.8064,2.8065,0,2.8139,2.8139,2.814,2.8157,2.8157,2.8156,2.8156,2.8229,2.8231,2.8233,0,0,0,0,0,0,0,0,0,0,0,0,0,2.7934,2.7937,2.8064,2.8065,2.8066,2.8138,2.8139,2.814,2.8157,2.8157,2.8156,2.8155,2.8228,2.8231,2.8234,0,0,0,0,0,0,0,0,0,0,0,0,0,2.7998,2.7937,2.8064,2.8083,2.8085,2.8138,2.8139,2.8141,2.8157,2.8157,2.8156,2.8155,2.8227,2.8231,2.8234,2.8272,0,0,2.8245,2.8247,0,0,0,0,0,0,0,0,2.7994,2.8003,2.8079,2.8082,2.8084,2.8138,2.8121,2.8185,2.8158,2.813,2.8156,2.8155,2.8199,2.8205,2.822,2.8276,2.8279,2.8246,2.8248,2.8249,2.825,0,0,0,0,0,0,0,2.799,2.7999,2.8093,2.808,2.8083,2.8087,2.8096,2.8133,2.8168,2.8132,2.8134,2.8142,2.82,2.8217,2.8222,2.828,2.8245,2.8249,2.8251,2.8252,2.8373,2.8374,0,0,0,0,0,0,2.7982,2.7996,2.8091,2.8095,2.8037,2.809,2.8099,2.8121,2.8167,2.8174,2.8143,2.8143,2.8211,2.8218,2.8225,2.8275,2.8249,2.8253,2.8255,2.8372,2.8374,2.8375,0,0,0,0,0,0,2.798,2.7991,2.8088,2.8046,2.8059,2.8093,2.8118,2.8123,2.814,2.8176,2.8182,2.8154,2.8211,2.822,2.8261,2.8278,2.8254,2.8258,2.8371,2.8373,2.8374,2.8374,0,0,0,0,0,0,2.7976,2.799,2.8004,2.8046,2.8061,2.8123,2.8119,2.8125,2.8147,2.8147,2.8187,2.8193,2.8211,2.8256,2.8265,2.8282,2.8261,2.837,2.8372,2.8374,2.8373,2.8375,2.8378,0,0,0,0,0,2.7971,2.8,2.8005,2.8016,2.808,2.8124,2.8133,2.8153,2.8148,2.8163,2.8187,2.8192,2.8274,2.826,2.827,2.8289,2.8369,2.8371,2.8374,2.8372,2.8375,2.8378,0,0,0,0,0,0,2.7957,2.8005,2.8012,2.8055,2.8086,2.8127,2.8147,2.8155,2.8187,2.8186,2.8209,2.8218,2.8259,2.8278,2.8261,2.833,2.8321,2.8326,2.8316,2.832,2.8322,2.8317,2.8264,0,0,0,0,0,2.7959,2.7991,2.8032,2.8066,2.8081,2.8112,2.8131,2.8145,2.8177,2.819,2.8216,2.8246,2.8279,2.83,2.8332,2.8375,2.8386,2.8394,2.8396,2.8398,2.8402,2.8429,2.8434,2.8382,2.8382,2.8382,0,0,2.7963,2.7994,2.8012,2.8064,2.8089,2.8123,2.8122,2.8156,2.8181,2.8194,2.8237,2.8257,2.8292,2.8336,2.8356,2.8353,2.8419,2.8401,2.8402,2.8405,2.8432,2.8437,2.8441,2.8384,2.8384,2.8383,0,0,2.7989,2.8014,2.8047,2.8074,2.8113,2.8133,2.8141,2.8182,2.8197,2.824,2.8251,2.8281,2.8336,2.8362,2.8383,2.8421,2.8428,2.8431,2.8444,2.847,2.8475,2.8478,2.8495,2.85,2.8434,2.8434,2.8434,0,2.7989,2.804,2.8063,2.8098,2.8121,2.8137,2.8171,2.8195,2.8242,2.8257,2.8253,2.8326,2.835,2.8402,2.8412,2.8427,2.8438,2.8427,2.8472,2.8476,2.848,2.8496,2.8502,2.8435,2.8435,2.8435,2.8435,0,2.8039,2.8075,2.8097,2.8145,2.817,2.8204,2.8233,2.8256,2.8268,2.8289,2.8334,2.8364,2.8404,2.8417,2.8428,2.8471,2.8468,2.8468,2.846,2.8485,2.8501,2.8506,2.8435,2.8435,2.8435,2.8435,0,0,2.8056,2.8119,2.8127,2.815,2.8196,2.8224,2.8259,2.8301,2.8321,2.8353,2.8385,2.8433,2.8435,2.8458,2.8472,2.8495,2.8527,2.8492,2.8493,2.8499,2.8579,2.8581,2.8587,2.8531,2.8533,2.8534,2.8577,0,2.8089,2.8155,2.8178,2.8232,2.8267,2.8283,2.8315,2.8346,2.8367,2.84,2.8422,2.8458,2.8455,2.847,2.8493,2.8518,2.8544,2.8515,2.8562,2.8563,2.8555,2.8595,2.8596,2.8636,2.8583,2.8584,2.8585,0,2.8135,2.8171,2.823,2.8275,2.829,2.8318,2.8359,2.8389,2.8426,2.844,2.8468,2.8481,2.852,2.851,2.8564,2.8545,2.8565,2.8581,2.8583,2.8589,2.8577,2.8604,2.8648,2.8655,2.8594,2.8593,2.8593,0,2.8145,2.8207,2.8252,2.8271,2.8323,2.8343,2.8366,2.8402,2.8427,2.8462,2.8479,2.8518,2.854,2.857,2.8594,2.8583,2.8648,2.8638,2.8661,2.8661,2.8675,2.8674,2.8725,2.8685,2.8685,2.8685,2.8684,0,2.8179,2.8215,2.8257,2.8284,2.8326,2.8352,2.8392,2.8416,2.8448,2.8481,2.8497,2.8527,2.8556,2.859,2.8609,2.8653,2.8662,2.8675,2.868,2.8675,2.8673,2.8689,2.8688,2.8686,2.8686,2.8686,2.8685,0,2.8197,2.8226,2.8276,2.8323,2.8336,2.8365,2.8405,2.8432,2.8455,2.8497,2.8508,2.8543,2.8585,2.8612,2.8663,2.8676,2.8725,2.8728,2.8714,2.8716,2.8739,2.8737,2.8803,2.8815,2.8765,2.8766,2.8766,0,2.8218,2.8246,2.8298,2.8322,2.8345,2.8383,2.8409,2.8437,2.8463,2.851,2.8532,2.8575,2.8611,2.8676,2.8706,2.8747,2.8752,2.8773,2.8758,2.8754,2.8756,2.8755,2.8759,2.8775,2.8776,2.8776,2.8776,0,2.8252,2.8267,2.8304,2.8348,2.838,2.8415,2.845,2.8468,2.8502,2.8531,2.8575,2.8603,2.8659,2.8702,2.8746,2.8769,2.8779,2.8781,2.8789,2.8785,2.8776,2.8784,2.8722,2.8779,2.8779,2.8779,2.8778,2.8778,2.8274,2.8301,2.8343,2.8385,2.8416,2.8449,2.8479,2.8507,2.8544,2.8592,2.8606,2.8653,2.8691,2.8752,2.8777,2.8813,2.8811,2.8822,2.8825,2.8828,2.883,2.8769,2.8821,2.8821,2.8821,2.8821,2.8821,0,2.8311,2.834,2.8379,2.843,2.8463,2.8472,2.8512,2.854,2.8581,2.8617,2.8653,2.8705,2.8748,2.8783,2.8827,2.885,2.8856,2.8861,2.886,2.8866,2.8828,2.8818,2.8856,2.8856,2.8856,2.8856,2.8856,2.8856,2.8335,2.8383,2.8403,2.8467,2.8495,2.8542,2.8565,2.8597,2.8626,2.8684,2.8721,2.8744,2.878,2.8828,2.8868,2.8877,2.8894,2.8898,2.8909,2.8872,2.8868,2.8865,2.8856,2.8901,2.8901,2.8945,2.8945,2.8945]}]]